Regional Weather Roundup
Issued by NWS

Home | Current Version | Previous Version | Graphics & Text | Print | Product List | Glossary On
Versions: 1 2 3 4 5 6 7 8 9 10 11 12 13 14 15 16 17 18 19 20 21 22 23 24 25 26 27 28 29 30 31 32 33 34 35 36 37 38 39 40 41 42 43 44 45 46 47 48 49 50
000
ASUS43 KIND 151659
RWRIN

WEATHER ROUNDUP FOR INDIANA
NATIONAL WEATHER SERVICE INDIANAPOLIS IN
100 PM EDT MON SEP 15 2014

NOTE: "FAIR" INDICATES FEW OR NO CLOUDS BELOW 12,000 FEET WITH NO
SIGNIFICANT WEATHER AND/OR OBSTRUCTIONS TO VISIBILITY.

* - STATION DOES NOT REPORT WEATHER SUCH AS PRECIPITATION OR FOG.

+ - STATION NOT QUALITY CONTROLLED BY THE NATIONAL WEATHER SERVICE.
    USE DATA WITH CAUTION...ESPECIALLY DEWPOINT AND RELATIVE
    HUMIDITY OBSERVATIONS.

INZ001>003-010>013-019-020-151800-
NORTHWEST INDIANA

CITY           SKY/WX    TMP DP  RH WIND       PRES   REMARKS
GARY /AIRPORT/ CLOUDY    59  52  77 S7        30.14F
VALPARAISO     CLOUDY    57  51  80 S5        30.14F

$$

LMZ046-743>745-151800-
SOUTHERN LAKE MICHIGAN

STATION/POSITION TIME  TEMP WIND        PRES
                       AIR  DIR/SP/G
                 (UTC) (F)  (DEG/KT/KT) (MB)
MICHIGAN CITY    1600   57  170/ 11/ 14   N/A

$$

INZ004-005-014>016-021>024-151800-
NORTH CENTRAL INDIANA

CITY           SKY/WX    TMP DP  RH WIND       PRES   REMARKS
ELKHART        CLOUDY    57  50  77 SW5       30.15F
GOSHEN         CLOUDY    58  52  80 S8        30.16R
SOUTH BEND     CLOUDY    58  51  78 S7        30.15F
WARSAW +       CLOUDY    55  52  88 CALM      30.17S

$$

INZ006>009-017-018-025>027-151800-
NORTHEAST INDIANA

CITY           SKY/WX    TMP DP  RH WIND       PRES   REMARKS
ANGOLA *+      CLOUDY    57  46  67 W3        30.16R
FORT WAYNE     CLOUDY    58  53  84 NW7       30.19R

$$

INZ028-029-035-036-043>045-051>053-151800-
WEST CENTRAL INDIANA

CITY           SKY/WX    TMP DP  RH WIND       PRES   REMARKS
GREENCASTLE +  CLOUDY    61  52  72 NW6       30.23R
LAFAYETTE      RAIN      55  55 100 CALM      30.18R FOG
TERRE HAUTE    CLOUDY    62  53  72 N7        30.22R

$$

INZ030>032-037>040-046>048-054>057-064-065-151800-
CENTRAL INDIANA

CITY           SKY/WX    TMP DP  RH WIND       PRES   REMARKS
ANDERSON       MOSUNNY   66  48  52 S12       30.16F
COLUMBUS       SUNNY     66  52  59 CALM      30.17F
FRANKFORT +    TSTM      58  54  85 SW3       30.20R
INDIANAPOLIS   CLOUDY    64  51  62 W8        30.19R
-EAGLE CREEK   CLOUDY    64  48  56 W7        30.19R
KOKOMO *+      CLOUDY    59  54  82 NW3       30.19R THUNDER
MT COMFORT *+  SUNNY     68  39  34 S6G16     30.17S
SHELBYVILLE    CLOUDY    71  51  49 VRB7      30.15F

$$

INZ033-034-041-042-049-050-058-059-151800-
EAST CENTRAL INDIANA

CITY           SKY/WX    TMP DP  RH WIND       PRES   REMARKS
MUNCIE         PTSUNNY   66  47  50 S10       30.13F

$$

INZ060-061-067>069-081>083-085>088-151800-
SOUTHWEST INDIANA

CITY           SKY/WX    TMP DP  RH WIND       PRES   REMARKS
EVANSVILLE     PTSUNNY   71  54  54 VRB5      30.16F

$$

INZ062-063-066-070>080-084-089>092-151800-
SOUTH CENTRAL AND SOUTHEAST INDIANA

CITY           SKY/WX    TMP DP  RH WIND       PRES   REMARKS
BLOOMINGTON    CLOUDY    64  52  64 CALM      30.18S

$$



USA.gov is the U.S. government's official web portal to all federal, state and local government web resources and services.